Flag Weather past 2 weeks in St. Petersburg, Florida, U.S.A.

Now
59 °F

Clear.


Feels Like: 57 °F
Forecast: 49 / 69 °F
Wind: 12 mph from East

Location: Whitted Airport

Current Time: Nov 28, 2014 at 7:46:45 PM

Latest Report: Nov 28, 2014 at 6:53 PM


Visibility: 10 mi

Pressure: 30.25 "Hg

Humidity: 46%

Dew point: 38 °F

Location of St. PetersburgLocation

Historic Weather in St. Petersburg — Graph

°F

St. Petersburg temperature yesterday

Maximum temperature yesterday: 69 °F (at 12:53 PM)
Minimum temperature yesterday: 52 °F (at 5:53 AM)
Average temperature yesterday: 60 °F

Past Weeks' High & Low Weather Summary

 TemperatureHumidityPressure
High81 °F (Nov 23, 11:53 AM)97% (Nov 24, 3:53 AM)30.37 "Hg (Nov 24, 3:53 AM)
Low44 °F (Nov 19, 6:53 AM)37% (Nov 20, 3:53 PM)29.83 "Hg (Nov 25, 11:53 PM)
Average64 °F75%30.11 "Hg
* Reported Nov 13 6:53 PM — Nov 28 6:53 PM, St. Petersburg, Weather by CustomWeather, © 2014

Note: Actual official high and low records may vary slightly from our data, if they occured in-between our weather recording intervals... More about our weather records

Advertising

St. Petersburg weather history for previous 24 hours

 ConditionsComfort  
Time TempWeatherWind HumidityBarometerVisibility
6:53 PM
Nov 28
59 °FClear.12 mph46%30.25 "Hg10 mi
5:53 PM60 °FClear.12 mph44%30.25 "Hg10 mi
4:53 PM60 °FSunny.9 mph42%30.24 "Hg10 mi
3:53 PM60 °FSunny.7 mph39%30.23 "Hg10 mi
2:53 PM59 °FSunny.5 mph41%30.24 "Hg10 mi
1:53 PM58 °FSunny.9 mph43%30.25 "Hg10 mi
12:53 PM55 °FSunny.8 mph47%30.29 "Hg10 mi
11:53 AM53 °FSunny.8 mph48%30.31 "Hg10 mi
10:53 AM51 °FSunny.9 mph54%30.33 "Hg10 mi
9:53 AM49 °FSunny.12 mph61%30.34 "Hg10 mi
8:53 AM48 °FSunny.20 mph66%30.34 "Hg10 mi
7:53 AM48 °FSunny.17 mph68%30.32 "Hg10 mi
6:53 AM48 °FClear.18 mph68%30.30 "Hg10 mi
5:53 AM49 °FClear.17 mph69%30.29 "Hg10 mi
4:53 AM51 °FClear.18 mph63%30.28 "Hg10 mi
3:53 AM52 °FClear.18 mph64%30.28 "Hg10 mi
2:53 AM53 °FClear.17 mph64%30.28 "Hg10 mi
1:53 AM54 °FClear.17 mph57%30.28 "Hg10 mi
12:53 AM55 °FClear.18 mph57%30.28 "Hg10 mi
11:53 PM
Nov 27
56 °FClear.18 mph55%30.28 "Hg10 mi
10:53 PM57 °FClear.17 mph58%30.28 "Hg10 mi
9:53 PM58 °FClear.14 mph60%30.27 "Hg10 mi
8:53 PM58 °FClear.9 mph58%30.26 "Hg10 mi
7:53 PM58 °FClear.14 mph58%30.24 "Hg10 mi
Weather by CustomWeather, © 2014

See weather overviewHow to use our weather pages